CW7710 Weather Reports


Display with metric or nautical units.
time (UTC)temp
F
wind
direction
speed
MPH
gust
MPH
rain 1hr
in
rain 24hr
in
rain mn
in
humidity
%
barometer
mb
20260503032342 60 316 3.0 0.0 0.00 0.00 0.00 41 1015.5
20260503031406 61 79 0.0 0.0 0.00 0.00 0.00 39 1015.3
20260503030349 61 57 2.0 0.0 0.00 0.00 0.00 39 1015.3
20260503025336 62 30 4.0 0.0 0.00 0.00 0.00 39 1015.1
20260503024400 61 1 3.0 0.0 0.00 0.00 0.00 41 1015.8
20260503023343 61 318 3.0 0.0 0.00 0.00 0.00 42 1015.8
20260503022327 63 257 3.0 0.0 0.00 0.00 0.00 40 1015.5
20260503021356 64 36 4.0 0.0 0.00 0.00 0.00 38 1015.0
20260503020339 65 51 5.0 0.0 0.00 0.00 0.00 38 1016.1
20260503015326 65 55 6.0 0.0 0.00 0.00 0.00 37 1015.2
20260503014331 66 51 5.0 0.0 0.00 0.00 0.00 36 1015.1
20260503013340 68 61 8.0 0.0 0.00 0.00 0.00 32 1014.7
20260503012344 68 36 11.0 0.0 0.00 0.00 0.00 29 1014.9
20260503011328 69 23 11.0 0.0 0.00 0.00 0.00 27 1014.6
20260503010331 70 17 12.0 0.0 0.00 0.00 0.00 28 1014.5
20260503005342 70 36 13.0 0.0 0.00 0.00 0.00 27 1015.1
20260503004326 70 4 13.0 0.0 0.00 0.00 0.00 28 1015.0
20260503003330 71 8 12.0 0.0 0.00 0.00 0.00 27 1015.0
20260503002338 71 19 13.0 0.0 0.00 0.00 0.00 27 1015.0
20260503001341 71 336 13.0 0.0 0.00 0.00 0.00 28 1015.1
20260503000328 71 17 11.0 0.0 0.00 0.00 0.00 27 1015.2
20260502235332 71 8 12.0 0.0 0.00 0.00 0.00 27 1014.5
20260502234355 72 17 12.0 0.0 0.00 0.00 0.00 27 1014.6
20260502233339 71 31 13.0 0.0 0.00 0.00 0.00 28 1014.8
20260502232327 71 17 13.0 0.0 0.00 0.00 0.00 27 1014.9
20260502231334 70 45 14.0 0.0 0.00 0.00 0.00 29 1015.2
20260502230338 70 18 13.0 0.0 0.00 0.00 0.00 29 1015.4
20260502225342 69 20 13.0 0.0 0.00 0.00 0.00 30 1015.2
20260502224329 69 22 12.0 0.0 0.00 0.00 0.00 31 1015.2
20260502223333 69 32 13.0 0.0 0.00 0.00 0.00 31 1015.4
20260502222337 69 24 13.0 0.0 0.00 0.00 0.00 32 1015.4
20260502221325 69 354 12.0 0.0 0.00 0.00 0.00 31 1015.5
20260502220337 70 7 13.0 0.0 0.00 0.00 0.00 29 1016.2
20260502215327 71 6 7.0 0.0 0.00 0.00 0.00 26 1016.2
20260502214352 71 348 6.0 0.0 0.00 0.00 0.00 25 1016.2
20260502213339 71 325 5.0 0.0 0.00 0.00 0.00 24 1016.4
20260502212347 72 331 2.0 0.0 0.00 0.00 0.00 24 1016.3
20260502211330 72 331 3.0 0.0 0.00 0.00 0.00 23 1016.7
20260502210355 72 343 4.0 0.0 0.00 0.00 0.00 23 1016.8
20260502205337 72 115 6.0 0.0 0.00 0.00 0.00 22 1016.7
20260502204340 72 356 5.0 0.0 0.00 0.00 0.00 24 1016.8
20260502203329 71 352 4.0 0.0 0.00 0.00 0.00 23 1017.2
20260502202353 72 12 2.0 0.0 0.00 0.00 0.00 23 1017.2
20260502201335 71 252 4.0 0.0 0.00 0.00 0.00 23 1017.5
20260502200339 70 290 4.0 0.0 0.00 0.00 0.00 24 1017.6
20260502195348 71 271 3.0 0.0 0.00 0.00 0.00 24 1017.5
20260502194332 70 50 4.0 0.0 0.00 0.00 0.00 24 1017.7
20260502193356 70 326 4.0 0.0 0.00 0.00 0.00 25 1017.8
20260502192339 69 302 5.0 0.0 0.00 0.00 0.00 25 1018.3
20260502191326 69 353 7.0 0.0 0.00 0.00 0.00 25 1018.4
20260502190334 69 330 4.0 0.0 0.00 0.00 0.00 27 1018.4
20260502185339 68 264 3.0 0.0 0.00 0.00 0.00 27 1018.9
20260502184342 67 356 4.0 0.0 0.00 0.00 0.00 26 1018.6
20260502183327 67 311 5.0 0.0 0.00 0.00 0.00 29 1018.5
20260502182335 67 294 4.0 0.0 0.00 0.00 0.00 29 1018.7
20260502181338 65 349 5.0 0.0 0.00 0.00 0.00 29 1019.2
20260502180325 65 303 5.0 0.0 0.00 0.00 0.00 31 1019.2
20260502170333 61 320 2.0 0.0 0.00 0.00 0.00 34 1019.3
20260502164326 60 299 2.0 0.0 0.00 0.00 0.00 38 1019.7
20260502163330 59 314 2.0 0.0 0.00 0.00 0.00 38 1019.8
20260502162337 58 357 1.0 0.0 0.00 0.00 0.00 41 1020.1
20260502161326 56 77 1.0 0.0 0.00 0.00 0.00 45 1020.5
20260502160350 54 40 2.0 0.0 0.00 0.00 0.00 47 1020.1
20260502152326 50 90 3.0 0.0 0.00 0.00 0.00 53 1020.3
20260502151329 49 117 3.0 0.0 0.00 0.00 0.00 53 1020.8
20260502150334 48 94 3.0 0.0 0.00 0.00 0.00 58 1020.8
20260502130343 34 77 2.0 0.0 0.00 0.00 0.00 77 1020.9
20260502123339 32 123 2.0 0.0 0.00 0.00 0.00 76 1020.6
20260502122327 32 91 2.0 0.0 0.00 0.00 0.00 76 1020.6
20260502121331 32 109 2.0 0.0 0.00 0.00 0.00 76 1020.5
20260502120336 32 113 3.0 0.0 0.00 0.00 0.00 75 1020.6
20260502115330 31 93 3.0 0.0 0.00 0.00 0.00 74 1020.6
20260502114334 31 73 3.0 0.0 0.00 0.00 0.00 72 1020.6
20260502113358 33 91 1.0 0.0 0.00 0.00 0.00 72 1020.1
20260502112326 34 111 2.0 0.0 0.00 0.00 0.00 72 1020.6
20260502111331 34 111 2.0 0.0 0.00 0.00 0.00 72 1020.6
20260502110355 34 110 2.0 0.0 0.00 0.00 0.00 71 1020.6
20260502105336 34 107 2.0 0.0 0.00 0.00 0.00 71 1020.5
20260502104400 34 123 2.0 0.0 0.00 0.00 0.00 70 1020.4
20260502103327 36 128 3.0 0.0 0.00 0.00 0.00 70 1020.2
20260502102331 36 117 2.0 0.0 0.00 0.00 0.00 70 1020.1
20260502101335 35 102 2.0 0.0 0.00 0.00 0.00 70 1020.4
20260502100339 35 99 2.0 0.0 0.00 0.00 0.00 70 1020.4
20260502091326 35 101 3.0 0.0 0.00 0.00 0.00 67 1020.1
20260502090330 36 92 4.0 0.0 0.00 0.00 0.00 66 1019.8
20260502071327 40 95 2.0 0.0 0.00 0.00 0.00 60 1019.5
20260502070336 42 94 1.0 0.0 0.00 0.00 0.00 59 1019.1
20260502065401 42 95 1.0 0.0 0.00 0.00 0.00 59 1019.6
20260502064344 42 95 2.0 0.0 0.00 0.00 0.00 58 1019.5
20260502063347 43 90 1.0 0.0 0.00 0.00 0.00 57 1019.2
20260502062334 43 46 4.0 0.0 0.00 0.00 0.00 57 1019.0
20260502061340 43 190 1.0 0.0 0.00 0.00 0.00 57 1019.0
20260502060344 43 116 5.0 0.0 0.00 0.00 0.00 56 1018.9
20260502055329 45 216 1.0 0.0 0.00 0.00 0.00 51 1019.3
20260502054337 48 143 6.0 0.0 0.00 0.00 0.00 49 1018.5
20260502053342 48 159 7.0 0.0 0.00 0.00 0.00 49 1018.6
20260502052347 48 129 6.0 0.0 0.00 0.00 0.00 47 1018.6
20260502051332 48 111 6.0 0.0 0.00 0.00 0.00 46 1018.7
20260502050336 49 114 7.0 0.0 0.00 0.00 0.00 45 1018.6
20260502045344 48 113 5.0 0.0 0.00 0.00 0.00 47 1018.6
20260502044327 48 121 4.0 0.0 0.00 0.00 0.00 47 1018.7
20260502043352 47 115 3.0 0.0 0.00 0.00 0.00 47 1018.6
20260502042333 49 92 3.0 0.0 0.00 0.00 0.00 44 1019.2
20260502041340 50 78 3.0 0.0 0.00 0.00 0.00 42 1019.1
20260502040323 52 58 4.0 0.0 0.00 0.00 0.00 40 1018.7
20260502035330 54 124 5.0 0.0 0.00 0.00 0.00 37 1018.8
20260502034335 55 116 5.0 0.0 0.00 0.00 0.00 36 1018.5
20260502033343 55 132 6.0 0.0 0.00 0.00 0.00 35 1018.4